| time (UTC) | temp F | wind direction | speed MPH | gust MPH | rain 1hr in | rain 24hr in | rain mn in | humidity % | barometer mb |
| 20260902200015 | 67 | 0.0 | 2.0 | 0.00 | 0.43 | 0.29 | 80 | 1019.6 | |
| 20260902193015 | 66 | 0.0 | 2.0 | 0.00 | 0.43 | 0.29 | 81 | 1020.1 | |
| 20260902190017 | 65 | 0.0 | 2.0 | 0.13 | 0.43 | 0.29 | 82 | 1020.1 | |
| 20260902183017 | 65 | 0.0 | 1.0 | 0.29 | 0.43 | 0.29 | 82 | 1020.3 | |
| 20260902180015 | 65 | 0.0 | 2.0 | 0.16 | 0.30 | 0.16 | 80 | 1021.3 | |
| 20260902173022 | 66 | 0.0 | 2.0 | 0.00 | 0.14 | 0.00 | 76 | 1021.2 | |
| 20260902170038 | 66 | 0.0 | 4.0 | 0.00 | 0.14 | 0.00 | 75 | 1020.8 | |
| 20260902163017 | 67 | 0.0 | 2.0 | 0.00 | 0.14 | 0.00 | 74 | 1021.1 | |
| 20260902160017 | 67 | 0.0 | 1.0 | 0.00 | 0.14 | 0.00 | 74 | 1020.7 | |
| 20260902153017 | 67 | 0.0 | 1.0 | 0.00 | 0.14 | 0.00 | 75 | 1020.8 | |
| 20260902150018 | 66 | 0.0 | 2.0 | 0.00 | 0.14 | 0.00 | 76 | 1021.1 | |
| 20260902143017 | 66 | 0.0 | 2.0 | 0.00 | 0.14 | 0.00 | 76 | 1021.2 | |
| 20260902140018 | 65 | 0.0 | 1.0 | 0.00 | 0.14 | 0.00 | 78 | 1021.0 | |
| 20260902133016 | 64 | 0.0 | 0.0 | 0.00 | 0.17 | 0.00 | 79 | 1021.1 | |
| 20260902130016 | 63 | 0.0 | 1.0 | 0.00 | 0.23 | 0.00 | 80 | 1020.7 | |
| 20260902123016 | 63 | 0.0 | 2.0 | 0.00 | 0.29 | 0.00 | 82 | 1020.7 | |
| 20260902120017 | 62 | 0.0 | 2.0 | 0.00 | 0.34 | 0.00 | 83 | 1020.5 | |
| 20260902113018 | 62 | 0.0 | 1.0 | 0.00 | 0.34 | 0.00 | 83 | 1020.7 | |
| 20260902110016 | 62 | 0.0 | 1.0 | 0.00 | 0.35 | 0.00 | 83 | 1020.8 | |
| 20260902103016 | 63 | 0.0 | 1.0 | 0.00 | 0.36 | 0.00 | 83 | 1020.5 | |
| 20260902100016 | 63 | 0.0 | 1.0 | 0.00 | 0.36 | 0.00 | 83 | 1020.2 | |
| 20260902093036 | 63 | 0.0 | 0.0 | 0.00 | 0.36 | 0.00 | 83 | 1019.9 | |
| 20260902090036 | 63 | 0.0 | 1.0 | 0.00 | 0.36 | 0.00 | 83 | 1019.7 | |
| 20260902083016 | 63 | 0.0 | 1.0 | 0.00 | 0.36 | 0.00 | 83 | 1019.5 | |
| 20260902080017 | 62 | 0.0 | 1.0 | 0.00 | 0.41 | 0.00 | 83 | 1019.4 | |
| 20260902073017 | 63 | 0.0 | 1.0 | 0.00 | 0.41 | 0.00 | 83 | 1019.3 | |
| 20260902070017 | 63 | 0.0 | 1.0 | 0.00 | 0.41 | 0.00 | 83 | 1019.5 | |
| 20260902063015 | 63 | 0.0 | 2.0 | 0.00 | 0.41 | 0.00 | 83 | 1019.6 | |
| 20260902060015 | 63 | 0.0 | 1.0 | 0.00 | 0.41 | 0.00 | 82 | 1019.5 | |
| 20260902053016 | 64 | 0.0 | 1.0 | 0.00 | 0.43 | 0.00 | 82 | 1019.3 | |
| 20260902050015 | 64 | 0.0 | 1.0 | 0.00 | 0.43 | 0.00 | 82 | 1019.4 | |
| 20260902043015 | 64 | 0.0 | 2.0 | 0.00 | 0.45 | 0.00 | 82 | 1019.0 | |
| 20260902040015 | 64 | 0.0 | 2.0 | 0.00 | 0.46 | 0.46 | 82 | 1018.6 | |
| 20260902033016 | 64 | 0.0 | 2.0 | 0.00 | 0.47 | 0.46 | 82 | 1018.2 | |
| 20260902030016 | 64 | 0.0 | 2.0 | 0.00 | 0.47 | 0.46 | 82 | 1018.0 | |
| 20260902023023 | 65 | 0.0 | 3.0 | 0.00 | 0.48 | 0.46 | 81 | 1017.7 | |
| 20260902020016 | 66 | 0.0 | 0.0 | 0.00 | 0.48 | 0.46 | 82 | 1017.6 | |
| 20260902013019 | 66 | 0.0 | 0.0 | 0.00 | 0.48 | 0.46 | 82 | 1017.3 | |
| 20260902010016 | 66 | 0.0 | 1.0 | 0.00 | 0.48 | 0.46 | 81 | 1016.9 | |
| 20260902003016 | 67 | 0.0 | 5.0 | 0.00 | 0.49 | 0.46 | 81 | 1016.4 | |
| 20260902000015 | 69 | 90 | 1.0 | 5.0 | 0.00 | 0.49 | 0.46 | 82 | 1015.9 |
| 20260901233017 | 70 | 68 | 1.0 | 7.0 | 0.13 | 0.49 | 0.46 | 82 | 1015.7 |
| 20260901230015 | 72 | 68 | 1.0 | 8.0 | 0.13 | 0.49 | 0.46 | 81 | 1015.7 |
| 20260901223018 | 73 | 68 | 1.0 | 2.0 | 0.01 | 0.36 | 0.33 | 82 | 1015.0 |
| 20260901220020 | 74 | 23 | 1.0 | 4.0 | 0.01 | 0.36 | 0.33 | 82 | 1014.8 |
| 20260901213015 | 75 | 0 | 1.0 | 3.0 | 0.00 | 0.35 | 0.32 | 81 | 1014.5 |
| 20260901210035 | 76 | 0.0 | 0.0 | 0.00 | 0.35 | 0.32 | 80 | 1014.4 | |
| 20260901203017 | 77 | 0.0 | 0.0 | 0.00 | 0.35 | 0.32 | 77 | 1014.2 |